DateTimeUTC,F1_A11,F1_S11,BsB_S11,BsG_S11,BsR_S11,BbsB_S11,BbsG_S11,BbsR_S11,BaB_A11,BaG_A11,BaR_A11,Tu_S11,T_S11,Uu_S11,U_S11,P_S11,T1_A11
2021-09-27T06:00:00Z,00000200,21000000,,,,,,,0000.98,0000.58,0000.70,16.2,23.3,,00.0,0670.2,30.8
2021-09-27T06:01:00Z,00000200,21000000,,,,,,,0000.84,0000.99,0000.77,16.3,23.4,,00.0,0670.2,30.8
2021-09-27T06:02:00Z,00000200,21000000,,,,,,,0000.65,0000.39,0000.59,16.3,23.4,,00.0,0670.2,30.9
2021-09-27T06:03:00Z,00000200,61000000,,,,,,,0001.65,0001.59,0001.02,16.3,23.4,,00.0,0670.2,30.9
2021-09-27T06:04:00Z,00000200,41000000,0002.75,0001.37,0000.64,0000.85,-000.04,-000.03,0000.98,0001.17,0000.79,16.7,23.3,,00.0,0671.2,30.9
2021-09-27T06:05:00Z,00000200,01000000,0002.55,0001.62,0001.13,-000.04,0000.58,0000.35,0000.74,0000.56,0000.32,16.8,23.3,,00.0,0671.2,30.9
2021-09-27T06:06:00Z,00000200,01000000,0002.11,0001.25,0000.92,0000.78,0000.15,0000.24,0001.23,0001.23,0000.83,16.7,23.3,,00.0,0671.2,30.9
2021-09-27T06:07:00Z,00000200,01000000,0002.16,0001.55,0000.87,0000.46,-000.01,0000.03,0001.15,0000.76,0001.01,16.7,23.3,,00.0,0671.2,30.9
2021-09-27T06:08:00Z,00000200,01000000,0002.51,0001.31,0001.15,0000.29,0000.04,0000.30,0000.90,0000.86,0000.57,16.6,23.3,,00.0,0671.2,30.8
2021-09-27T06:09:00Z,00000200,01000000,0002.26,0001.72,0001.10,0000.73,0000.17,0000.37,0003.68,0002.88,0002.86,16.6,23.2,,00.0,0671.2,30.8
2021-09-27T06:10:00Z,00000200,01000000,0002.29,0001.87,0001.05,0001.05,0000.22,0000.24,0008.68,0008.62,0006.45,16.5,23.2,,00.0,0671.2,30.8
2021-09-27T06:11:00Z,00000200,01000000,0005.18,0003.75,0002.35,0000.76,0000.71,0001.15,0032.76,0030.09,0024.99,16.5,23.2,,00.0,0671.2,30.8
2021-09-27T06:12:00Z,00000200,01000000,0006.75,0005.49,0003.07,0001.45,0001.06,0000.55,0058.21,0054.88,0044.06,16.5,23.2,,00.0,0671.2,30.8
2021-09-27T06:13:00Z,00000200,01000000,0002.57,0001.39,0001.03,0000.10,0000.12,0000.25,0004.40,0004.17,0003.49,16.5,23.2,,00.0,0671.2,30.8
2021-09-27T06:14:00Z,00000200,01000000,0002.92,0002.14,0001.41,0000.75,0000.20,0000.31,0009.84,0009.09,0007.36,16.6,23.2,,00.0,0671.2,30.8
2021-09-27T06:15:00Z,00000200,01000000,0002.76,0001.60,0000.87,0000.38,-000.11,0000.18,0002.53,0002.20,0002.09,16.7,23.2,,00.0,0671.2,30.9
2021-09-27T06:16:00Z,00000200,01000000,0002.54,0001.51,0001.34,0000.42,0000.03,0000.25,0001.66,0001.68,0001.09,16.8,23.2,,00.0,0671.2,30.9
2021-09-27T06:17:00Z,00000200,01000000,0002.30,0001.75,0001.28,0000.10,0000.14,0000.26,0002.64,0002.24,0002.10,16.8,23.3,,00.0,0671.2,30.9
2021-09-27T06:18:00Z,00000200,01000000,0003.17,0001.97,0001.42,0000.82,0000.26,0000.22,0005.82,0005.12,0003.69,16.8,23.3,,00.0,0671.2,30.9
2021-09-27T06:19:00Z,00000200,01000000,0004.80,0003.16,0002.33,0000.99,0000.72,0000.63,0025.23,0023.42,0019.43,16.8,23.3,,00.0,0671.2,30.9
2021-09-27T06:20:00Z,00000200,01000000,0010.61,0007.24,0004.42,0002.59,0001.82,0001.44,0084.95,0079.55,0064.20,16.8,23.3,,00.0,0671.2,30.9
2021-09-27T06:21:00Z,00000200,01000000,0014.34,0009.77,0006.64,0002.66,0002.40,0001.99,0127.42,0118.87,0096.68,16.7,23.3,,00.0,0671.2,30.8
2021-09-27T06:22:00Z,00000200,01000000,0015.66,0011.18,0007.07,0003.40,0002.41,0001.64,0141.77,0132.18,0108.27,16.7,23.2,,00.0,0671.2,30.8
2021-09-27T06:23:00Z,00000200,01000000,0011.54,0008.13,0005.39,0002.50,0001.65,0001.49,0102.98,0096.07,0078.42,16.6,23.2,,00.0,0671.2,30.8
2021-09-27T06:24:00Z,00040200,01000000,0013.17,0009.45,0006.36,0002.70,0002.07,0001.90,0118.37,0110.70,0090.07,16.6,23.2,,00.0,0671.1,30.8
2021-09-27T06:25:00Z,00040200,01000000,0012.33,0008.63,0005.35,0002.47,0001.85,0001.55,0111.24,0103.13,0084.37,16.5,23.1,,00.0,0671.1,30.8
2021-09-27T06:26:00Z,00040200,01000000,0012.78,0008.40,0005.30,0002.69,0002.00,0001.56,0113.52,0105.93,0085.85,16.5,23.1,,00.0,0671.2,30.8
2021-09-27T06:27:00Z,00040200,01000000,0006.69,0004.31,0002.93,0001.39,0001.02,0000.68,0049.52,0046.01,0037.99,16.5,23.1,,00.0,0671.1,30.8
2021-09-27T06:28:00Z,00040200,01000000,0004.24,0002.26,0002.02,0001.15,0000.50,0000.29,0017.94,0017.65,0013.95,16.5,23.1,,00.0,0671.1,30.8
2021-09-27T06:29:00Z,00040200,01000000,0003.64,0002.46,0001.84,0001.09,0000.45,0000.81,0017.36,0015.94,0013.02,16.6,23.1,,00.0,0671.2,30.8
2021-09-27T06:30:00Z,00040200,01000000,0003.38,0002.40,0001.44,0000.87,0000.55,0000.61,0011.53,0010.66,0008.94,16.7,23.2,,00.0,0671.1,30.8
2021-09-27T06:31:00Z,00040200,01000000,0004.23,0002.55,0001.39,0001.62,0000.14,0000.29,0014.19,0013.06,0010.60,16.7,23.2,,00.0,0671.2,30.9
2021-09-27T06:32:00Z,00040200,01000000,0003.56,0001.71,0001.08,0000.69,0000.04,0000.15,0005.03,0005.05,0004.14,16.8,23.2,,00.0,0671.2,30.9
2021-09-27T06:33:00Z,00040200,01000000,0001.83,0001.26,0001.13,0000.49,0000.40,0000.22,0002.26,0002.09,0001.84,16.8,23.2,,00.0,0671.2,30.9
2021-09-27T06:34:00Z,00040200,01000000,0002.34,0001.24,0000.85,0000.97,0000.20,-000.03,0001.39,0001.39,0000.80,16.8,23.2,,00.0,0671.2,30.9
2021-09-27T06:35:00Z,00040200,01000000,0002.56,0001.64,0000.99,0000.77,0000.12,0000.29,0001.54,0001.49,0001.02,16.8,23.3,,00.0,0671.1,30.8
2021-09-27T06:36:00Z,00040200,01000000,0002.62,0001.57,0000.77,0000.32,0000.53,0000.04,0001.22,0000.90,0000.90,16.7,23.2,,00.0,0671.1,30.8
2021-09-27T06:37:00Z,00040200,01000000,0002.10,0001.47,0000.84,0000.63,0000.11,0000.28,0001.22,0000.89,0000.81,16.7,23.2,,00.0,0671.1,30.8
2021-09-27T06:38:00Z,00040200,01000000,0002.10,0001.73,0000.98,-000.05,0000.16,0000.44,0001.06,0001.22,0000.47,16.6,23.2,,00.0,0671.1,30.8
2021-09-27T06:39:00Z,00040200,01000000,0002.90,0001.62,0000.90,0001.09,-000.01,0000.38,0001.33,0001.02,0001.18,16.5,23.2,,00.0,0671.1,30.8
2021-09-27T06:40:00Z,00040200,01000000,0003.36,0001.39,0001.11,0000.72,0000.52,0000.29,0001.32,0001.13,0001.26,16.5,23.1,,00.0,0671.0,30.8
2021-09-27T06:41:00Z,00040200,01000000,0002.38,0001.43,0001.04,0000.26,0000.15,0000.04,0000.73,0000.76,0000.27,16.5,23.1,,00.0,0671.1,30.8
2021-09-27T06:42:00Z,00040200,01000000,0001.87,0001.40,0000.88,0000.77,0000.31,-000.18,0001.59,0001.48,0001.25,16.5,23.1,,00.0,0671.1,30.8
2021-09-27T06:43:00Z,00040200,01000000,0001.45,0000.83,0000.84,0000.61,0000.29,0000.02,0001.22,0001.09,0000.97,16.5,23.1,,00.0,0671.1,30.8
2021-09-27T06:44:00Z,00040200,01000000,0001.92,0001.31,0000.94,0000.46,0000.07,-000.15,0000.91,0001.12,0000.84,16.6,23.1,,00.0,0671.1,30.8
2021-09-27T06:45:00Z,00040200,01000000,0002.23,0001.54,0001.18,0000.44,0000.02,0000.20,0001.06,0000.81,0000.95,16.7,23.1,,00.0,0671.1,30.8
2021-09-27T06:46:00Z,00040200,01000000,0002.17,0001.29,0001.19,0001.13,0000.20,0000.53,0001.02,0001.03,0000.68,16.7,23.2,,00.0,0671.1,30.8
2021-09-27T06:47:00Z,00040200,01000000,0002.39,0001.29,0000.99,0000.55,0000.04,0000.27,0001.39,0001.46,0000.42,16.8,23.2,,00.0,0671.1,30.9
2021-09-27T06:48:00Z,00040200,01000000,0001.81,0001.33,0000.89,0000.08,0000.04,-000.04,0000.55,0000.96,0000.78,16.9,23.2,,00.0,0671.1,30.9
2021-09-27T06:49:00Z,00040200,01000000,0002.54,0001.50,0000.83,0000.27,0000.03,0000.30,0001.22,0000.84,0000.93,16.9,23.3,,00.0,0671.1,30.9
2021-09-27T06:50:00Z,00040200,01000000,0002.64,0001.68,0001.33,0000.44,0000.22,0000.46,0005.87,0005.55,0004.14,16.8,23.3,,00.0,0671.1,30.9
2021-09-27T06:51:00Z,00040200,01000000,0002.88,0001.58,0001.09,0000.62,0000.09,0000.20,0007.33,0006.56,0005.47,16.8,23.2,,00.0,0671.1,30.9
2021-09-27T06:52:00Z,00040200,01000000,0003.44,0002.28,0000.92,0000.61,0000.35,0000.18,0010.70,0009.89,0007.88,16.7,23.2,,00.0,0671.1,30.8
2021-09-27T06:53:00Z,00040200,01000000,0005.33,0003.43,0001.77,0000.81,0000.59,0000.49,0027.43,0025.35,0020.62,16.7,23.2,,00.0,0671.1,30.8
2021-09-27T06:54:00Z,00040200,01000000,0005.41,0003.53,0002.36,0000.89,0000.94,0000.72,0039.59,0036.98,0030.28,16.6,23.2,,00.0,0671.1,30.8
2021-09-27T06:55:00Z,00040200,01000000,0004.08,0002.92,0002.12,0001.20,0000.84,0000.45,0030.30,0028.32,0023.03,16.5,23.1,,00.0,0671.1,30.8
2021-09-27T06:56:00Z,00040200,01000000,0004.56,0003.60,0002.00,0001.07,0000.43,0000.58,0033.26,0030.85,0025.63,16.5,23.1,,00.0,0671.1,30.8
2021-09-27T06:57:00Z,00040200,41000000,,,,,,,0004.76,0004.71,0003.58,16.6,23.1,,00.0,0671.0,30.8
2021-09-27T06:58:00Z,00040200,61000000,,,,,,,0000.79,0000.64,0000.58,16.3,23.2,,00.0,0670.1,30.8
2021-09-27T06:59:00Z,00040200,21000000,,,,,,,0000.22,0000.75,0000.28,16.3,23.3,,00.0,0670.1,30.8
